Wind_Speed
5 6 6 5 7 8 9 8 8 10 12 13 13 13 13 12 10 10 9 8 7 6 6 6 6 6 6 6 6 7 7 6 5 5 4 3 3 3 3 3 4 3 4
5 5 7 5 8 9 10 10 10 11 12 11 11 11 11 11 11 9 6 5 4 5 5 4 4 3 3 2 2 3 3 2 2 1 1 2 1 1 2 4 7 2 4
7 7 7 5 8 8 10 11 12 12 13 12 11 10 9 8 7 6 6 5 4 3 3 3 2 2 1 1 2 2 2 3 4 4 3 6 3 3 2 2 3 5 7
8 6 7 5 7 7 7 8 8 9 9 10 10 9 9 8 7 6 5 4 3 3 3 2 2 1 1 2 3 5 6 7 8 9 7 9 6 7 4 4 4 4 5
9 7 5 5 7 7 6 6 7 7 7 6 6 6 6 6 5 4 3 4 4 4 4 3 2 2 3 4 5 6 7 8 10 11 12 10 8 8 9 9 7 7 7
10 8 5 6 6 6 5 4 5 4 4 4 4 3 3 3 4 4 4 4 5 5 6 5 5 5 5 5 6 7 9 10 12 13 13 13 14 12 13 13 12 12 13
10 8 7 7 6 5 4 4 3 3 2 1 1 1 2 3 4 5 6 6 7 8 8 9 9 8 8 7 7 8 9 10 10 14 14 14 15 16 18 16 15 15 16
9 8 7 6 6 6 5 4 2 2 1 1 2 3 4 4 5 6 7 7 8 10 10 11 11 11 11 9 9 8 9 10 11 14 15 16 16 19 20 19 19 19 18
8 8 7 7 6 6 5 4 3 3 4 4 5 5 6 6 7 8 8 8 9 10 11 12 12 12 12 12 11 10 10 11 12 14 15 15 15 17 19 20 22 23 22
8 8 8 7 6 5 6 5 4 4 4 5 6 7 7 7 10 9 9 8 10 10 11 11 13 14 14 13 14 13 12 11 12 14 14 12 13 18 21 20 22 23 23
10 9 7 7 6 5 5 5 6 8 9 9 10 11 9 7 7 7 10 11 10 10 10 10 10 12 14 15 14 12 11 13 13 12 12 10 15 18 19 17 18 20 22
12 9 9 8 7 4 3 4 5 6 6 8 10 10 8 8 7 8 7 9 8 10 10 11 11 10 9 11 11 7 9 8 10 4 8 10 13 13 8 7 9 9 12
12 13 11 9 8 5 4 5 6 7 8 8 11 11 9 7 8 7 6 7 7 9 8 9 8 8 9 9 9 9 7 5 2 1 3 8 11 11 9 5 3 5 8
11 11 11 10 8 8 6 7 7 8 8 9 11 12 10 9 8 7 7 8 8 10 10 9 9 8 9 9 9 9 8 7 8 7 3 9 9 8 8 12 7 3 7
8 9 10 10 10 10 9 8 9 8 8 8 9 12 12 10 10 9 8 7 8 10 11 10 9 10 11 9 9 9 11 10 8 8 5 5 1 7 10 7 9 9 10
7 8 9 11 11 10 10 10 8 9 8 8 9 11 12 10 10 9 9 9 9 10 11 11 11 11 12 13 13 13 13 12 12 11 11 12 15 18 18 15 15 12 14
9 9 9 9 10 9 8 7 7 8 8 8 9 10 12 12 12 11 10 10 11 12 12 12 13 12 13 13 14 15 16 16 16 14 12 12 13 16 15 9 11 12 14
10 11 10 9 9 9 9 9 8 9 9 8 9 10 12 12 13 11 11 11 14 12 13 14 15 15 15 15 16 16 17 18 18 19 19 19 20 18 18 21 20 22 27
12 11 11 11 11 9 8 7 8 9 10 10 10 10 12 11 13 12 11 12 14 13 13 14 15 16 17 17 20 19 19 20 19 18 17 15 14 12 12 10 14 22 23
13 13 13 13 14 12 10 9 8 9 10 10 10 11 12 12 13 13 11 13 14 13 14 15 16 15 16 16 19 21 21 20 18 18 13 12 8 4 3 3 6 9 7
11 12 14 15 16 15 14 14 11 12 10 10 11 12 13 13 14 14 13 13 14 13 14 15 15 15 13 13 17 17 18 19 16 7 6 3 2 1 1 2 1 1 2
10 11 12 14 15 15 13 13 12 11 9 9 11 11 13 13 13 13 13 12 13 12 12 14 14 16 12 13 15 17 6 9 2 8 6 7 8 7 4 5 4 3 3
8 10 12 13 13 14 15 14 14 10 10 11 12 12 13 13 13 12 12 12 12 11 12 12 13 14 15 14 12 9 6 6 14 6 10 7 9 9 6 2 1 3 4
8 10 11 10 12 13 15 15 14 13 12 11 12 13 12 11 11 11 11 10 10 10 11 11 10 10 13 14 12 13 6 7 4 6 10 8 8 8 5 7 4 3 6
7 8 7 8 12 14 14 13 13 13 13 13 13 13 11 10 9 11 11 11 11 11 11 11 11 12 10 10 9 11 12 12 14 11 8 14 12 11 7 6 5 4 5
6 5 6 10 12 12 13 13 12 13 13 13 15 14 13 11 10 10 10 11 10 11 11 10 11 10 11 13 12 9 7 3 9 5 3 11 12 10 9 7 6 6 8
Wind_Direction
87 101 127 128 115 118 121 129 128 131 144 143 139 136 136 135 130 126 123 113 101 87 82 86 100 113 116 112 105 102 97 93 82 77 76 73 85 101 120 141 130 166 200
112 112 133 146 126 119 120 120 126 131 137 142 144 146 147 146 142 137 129 109 91 89 91 86 89 105 132 142 124 112 111 98 102 85 39 22 30 128 147 154 145 182 203
118 126 131 142 128 126 128 131 135 139 147 149 148 146 143 137 131 127 121 110 97 88 78 66 54 54 79 265 268 260 247 255 257 258 253 256 211 303 269 235 192 197 190
116 115 127 148 123 115 118 124 130 136 140 142 143 142 141 138 135 134 134 133 132 131 130 135 134 114 326 302 283 273 266 263 260 259 266 244 248 249 272 270 264 247 223
91 93 125 127 112 105 105 116 129 138 140 139 139 149 154 156 159 165 175 179 178 187 187 196 249 289 293 287 285 285 281 277 275 272 265 262 255 254 268 258 263 270 254
89 92 94 91 96 104 107 109 123 131 141 149 162 184 198 209 229 237 242 246 248 246 240 238 238 246 257 265 271 276 282 283 281 271 263 266 262 260 257 250 244 233 251
87 87 97 96 103 106 114 116 100 112 117 139 171 285 301 299 291 280 274 272 271 269 272 273 267 263 260 260 263 270 276 282 285 277 270 264 260 253 257 251 249 246 245
95 92 93 89 99 95 91 93 96 87 58 24 346 345 330 320 309 308 306 302 300 298 294 288 285 284 282 273 265 266 271 277 277 275 273 272 265 264 265 256 250 248 245
89 95 97 98 79 87 96 88 61 45 25 13 8 359 344 334 326 318 314 312 303 299 294 288 284 282 280 279 278 275 271 271 268 269 273 274 271 265 274 264 255 249 250
81 78 88 83 86 98 82 65 47 30 15 7 359 354 353 358 341 337 343 309 298 298 296 292 286 282 278 277 278 279 277 276 269 264 271 274 271 274 275 275 263 252 246
64 63 68 64 73 66 72 50 35 20 16 18 3 340 355 333 334 328 320 314 315 312 310 306 296 287 276 272 269 274 274 269 275 279 273 287 293 296 283 271 275 256 235
47 40 36 41 39 51 44 20 18 17 12 7 359 352 342 333 330 339 332 353 359 350 341 327 317 323 310 277 263 301 283 295 279 290 289 323 319 319 296 288 283 263 236
52 43 40 39 38 31 11 8 6 4 3 359 3 2 350 356 357 347 341 337 334 344 345 340 323 313 305 290 286 288 283 262 245 193 248 334 312 336 323 291 203 343 292
57 45 37 34 33 25 15 14 10 7 4 14 13 14 3 355 355 357 343 334 336 340 334 335 329 310 304 285 284 285 273 258 247 245 243 223 335 337 9 2 308 4 309
58 45 38 33 30 24 23 15 18 19 15 15 15 13 19 4 5 358 343 338 340 335 332 327 325 310 300 292 282 286 284 272 262 252 240 190 110 344 351 327 336 301 293
51 38 34 30 33 36 36 35 32 26 20 17 14 15 10 9 357 349 343 343 342 341 338 332 327 318 306 297 287 284 283 278 274 265 262 248 247 283 285 287 302 311 294
53 48 44 43 43 50 47 38 30 19 14 13 9 6 6 2 353 343 336 338 337 334 333 331 331 326 315 305 298 292 289 275 272 268 271 271 260 246 239 251 256 277 277
56 55 57 56 51 45 37 29 16 8 8 7 2 357 357 354 350 345 336 335 333 334 332 333 331 324 315 309 302 297 293 285 280 274 272 267 257 256 257 246 255 259 259
63 59 52 43 32 21 9 7 8 10 2 360 356 352 351 350 350 349 338 337 343 337 338 338 331 325 317 310 300 296 291 285 281 280 281 276 269 266 264 268 267 247 245
66 58 50 43 33 26 16 359 348 346 351 353 353 354 352 349 350 350 343 343 347 344 346 344 337 329 317 312 307 299 288 281 281 283 285 292 278 256 264 253 250 174 166
70 60 50 41 32 30 22 11 356 347 342 345 349 353 356 353 352 353 350 346 351 350 352 349 343 336 331 336 316 316 299 277 267 302 334 351 7 81 84 94 92 287 341
81 65 53 43 32 26 13 3 350 336 335 343 345 350 354 356 357 356 354 352 351 350 1 0 0 351 349 353 343 314 319 321 110 29 19 8 10 7 25 39 59 46 25
90 67 52 37 25 17 8 356 353 347 339 345 346 348 349 354 356 357 357 357 355 360 9 10 14 14 1 1 2 5 340 8 338 331 327 305 324 308 292 304 18 37 24
98 69 51 34 21 13 6 2 360 353 352 347 343 348 344 350 356 0 0 2 11 10 16 17 14 12 15 16 5 7 354 316 332 324 329 325 317 290 324 311 314 21 8
99 73 51 31 21 11 5 4 1 2 352 345 345 341 345 352 356 4 5 10 18 18 16 20 10 16 6 12 15 357 353 1 14 320 330 338 334 356 356 359 355 22 5
116 77 47 28 15 5 6 10 9 3 358 356 352 349 350 356 356 7 6 11 13 13 15 11 13 17 13 8 7 14 28 4 347 334 307 321 319 339 344 356 14 359 346
Height
812 814 814 815 815 815 816 816 816 816 816 817 816 816 816 816 817 817 817 817 816 817 817 816 816 816 816 816 815 815 814 814 813 813 812 812 812 811 811 812 813 814 813
814 816 817 816 816 817 818 818 818 817 818 819 819 818 816 816 816 817 818 818 818 817 817 818 817 817 817 817 817 816 815 815 814 813 813 812 812 812 811 810 811 813 814
816 817 818 819 818 818 818 818 818 818 818 819 819 819 819 819 819 819 818 818 819 819 818 818 818 818 817 817 817 817 816 816 815 814 813 812 812 813 812 812 812 812 813
817 819 819 819 820 821 821 821 821 821 822 821 820 821 820 820 820 820 819 818 818 817 817 817 817 817 817 817 817 816 816 816 815 814 813 812 811 811 812 813 813 813 814
819 820 821 822 822 823 824 823 823 824 823 823 823 822 821 820 820 820 819 818 817 816 815 815 816 816 815 815 815 816 816 815 815 814 813 810 811 809 810 811 812 813 813
820 822 824 824 824 824 825 826 825 825 825 824 824 823 823 822 821 820 820 819 819 817 816 815 814 813 813 813 813 813 814 814 813 813 811 811 811 809 809 809 810 811 812
822 823 825 824 825 825 826 826 827 826 825 826 825 825 824 823 823 821 820 820 819 818 818 817 815 813 812 812 811 811 811 811 812 810 809 809 809 807 808 808 807 808 809
823 825 826 825 826 826 827 828 828 828 827 827 827 825 825 823 822 821 820 819 818 819 818 816 816 815 814 812 810 809 808 808 810 808 807 807 807 806 807 806 806 806 805
824 825 826 827 827 827 828 828 829 828 828 827 827 826 825 824 822 821 820 818 817 816 816 815 814 813 811 811 810 808 806 806 806 805 804 804 803 804 804 803 803 803 804
825 826 826 828 828 828 829 829 829 829 828 827 827 826 824 823 822 820 819 817 816 815 814 812 812 811 809 808 808 807 805 804 803 801 800 800 798 801 800 800 800 799 799
828 829 830 829 830 829 830 830 830 829 829 828 827 825 824 824 822 821 818 816 814 813 812 810 809 807 806 805 804 804 802 800 797 796 798 795 797 797 797 796 797 795 795
834 833 831 831 831 832 832 832 831 830 830 829 828 825 824 823 821 819 817 816 814 812 810 809 807 806 803 802 800 799 799 797 798 796 796 795 797 795 794 794 795 795 795
835 835 835 833 833 833 833 833 832 831 831 830 828 827 825 823 821 820 818 817 816 812 810 808 807 805 804 802 801 801 798 798 798 795 792 794 796 794 793 792 792 795 796
837 838 837 836 836 835 835 834 833 832 832 831 830 828 826 824 822 820 819 817 815 813 811 808 806 805 804 802 800 798 798 797 795 792 790 786 795 794 791 793 792 791 795
839 839 839 838 837 836 836 836 835 835 834 834 832 829 827 826 823 821 820 818 815 813 811 808 806 804 802 800 797 796 796 794 793 791 789 787 790 791 790 790 794 794 793
841 841 841 840 838 838 838 838 838 837 836 835 834 831 830 828 826 823 821 819 816 813 811 808 805 803 800 797 795 794 792 791 790 790 787 785 785 786 788 789 792 790 793
843 843 843 843 842 840 840 840 840 839 838 836 835 833 830 828 826 824 822 819 816 813 810 807 804 801 798 795 793 791 789 787 787 787 785 784 782 781 783 780 784 787 789
846 846 845 845 844 842 841 840 839 838 836 836 834 833 830 828 826 824 822 819 816 813 810 806 803 800 797 795 792 788 786 783 782 781 781 780 779 779 778 779 778 778 780
847 848 847 846 845 844 844 842 841 840 839 838 836 834 831 829 827 824 822 819 815 812 809 806 803 800 796 793 789 785 783 780 777 777 777 777 776 775 775 774 774 774 776
849 850 850 849 847 846 845 844 842 841 840 838 837 834 832 829 826 824 821 818 815 811 808 806 803 799 796 791 788 784 779 775 773 773 772 773 773 772 772 771 773 772 772
852 852 852 851 850 849 847 846 844 842 840 838 837 835 832 829 826 823 820 818 814 811 809 806 803 799 794 791 787 779 775 771 770 769 770 773 773 773 773 773 772 771 771
854 855 854 853 852 852 851 849 846 843 841 839 837 835 832 829 826 823 821 818 816 812 809 807 804 800 795 793 790 782 768 766 766 772 774 775 776 775 774 773 773 773 772
855 855 854 855 855 854 852 849 846 842 839 838 837 834 832 830 827 824 822 819 816 812 810 809 806 804 800 794 793 790 780 773 779 772 774 775 775 775 774 773 774 773 773
854 854 855 857 856 854 853 850 848 844 842 840 838 835 833 830 828 825 823 820 817 814 812 810 809 806 804 801 796 794 794 792 787 778 774 771 771 771 772 772 772 773 772
853 855 857 858 856 855 854 852 849 847 844 840 838 836 832 830 828 826 823 820 818 815 814 812 810 808 805 804 802 800 796 792 791 787 777 776 773 773 775 773 773 773 773
853 855 856 856 857 856 854 852 850 848 846 843 840 836 833 831 829 826 824 822 820 817 815 814 812 810 809 806 803 801 801 800 798 795 791 783 777 776 775 774 774 774 774